Waarnemingen

Advertentie
Mijn weer
Navalmoral de la Mata, Spanje (8254): temperatuur & dauwpunt: 06.07.2020 14:00:00 - 12.07.2020 14:00:00 (CEST)Navalmoral de la Mata, Spanje (8254): windsnelheid & windstoten: 06.07.2020 14:00:00 - 12.07.2020 14:00:00 (CEST)Navalmoral de la Mata, Spanje (8254): windrichting: 06.07.2020 14:00:00 - 12.07.2020 14:00:00 (CEST)Navalmoral de la Mata, Spanje (8254): luchtdruk: 06.07.2020 14:00:00 - 12.07.2020 14:00:00 (CEST)Navalmoral de la Mata, Spanje (8254): zicht: 06.07.2020 14:00:00 - 12.07.2020 14:00:00 (CEST)Navalmoral de la Mata, Spanje (8254): Zonneschijnduur: 06.07.2020 14:00:00 - 12.07.2020 14:00:00 (CEST)Navalmoral de la Mata, Spanje (8254): neerslag: 06.07.2020 14:00:00 - 12.07.2020 14:00:00 (CEST)
Datum & Tijd tt [°C] td [°C] ff [km/u] ff [kn] fx [km/u] fx [kn] dd ppp [hPa] vv [km] sd [min] rr [mm]
12.07.2020 14:00:00 - - - - - - - - - - -
12.07.2020 13:00:00 32,3 12,0 6 4 18 10 OZO 1013,6 20 18 0,0
12.07.2020 12:00:00 31,2 13,1 6 4 20 11 ZO 1013,5 20 3 0,0
12.07.2020 11:00:00 29,5 14,0 10 6 28 15 OZO 1013,3 20 0 0,0
12.07.2020 10:00:00 29,2 14,2 16 8 32 17 O 1013,1 20 18 0,0
12.07.2020 09:00:00 28,0 15,0 16 9 36 19 O 1012,8 20 40 0,0
12.07.2020 08:00:00 26,0 16,0 10 5 21 12 O 1012,4 20 1 -
12.07.2020 07:00:00 25,7 15,1 9 5 21 11 O 1012,0 20 0 0,0
12.07.2020 06:00:00 22,3 10,4 3 2 10 6 ZW 1011,2 20 0 0,0
12.07.2020 05:00:00 23,3 10,4 6 3 9 5 W 1010,2 20 0 0,0
12.07.2020 04:00:00 25,6 9,0 5 3 14 7 NO 1010,4 20 0 0,0
12.07.2020 03:00:00 26,7 9,0 6 3 13 7 WZW 1010,5 20 0 0,0
12.07.2020 02:00:00 28,5 9,2 5 3 14 7 ZO 1009,4 20 0 -
12.07.2020 01:00:00 30,1 9,0 7 4 18 10 ONO 1008,4 20 0 0,0
12.07.2020 00:00:00 31,5 9,7 5 3 16 8 ZZO 1008,4 20 0 0,0
11.07.2020 23:00:00 31,0 10,4 9 5 14 8 Z 1008,4 20 0 0,0
11.07.2020 22:00:00 33,9 8,5 4 2 19 10 ONO 1007,6 20 0 0,0
11.07.2020 21:00:00 37,0 6,1 11 6 22 12 ONO 1007,1 20 0 0,0
11.07.2020 20:00:00 38,1 4,8 13 7 30 16 ONO 1007,3 20 13 -
11.07.2020 19:00:00 38,7 5,3 11 6 32 17 ONO 1007,8 20 57 0,0
11.07.2020 18:00:00 38,6 5,3 13 7 27 15 ONO 1008,5 20 43 0,0
11.07.2020 17:00:00 38,9 5,5 8 4 26 14 ONO 1009,1 20 60 0,0
11.07.2020 16:00:00 38,5 6,2 11 6 27 15 NNO 1009,5 20 60 0,0
11.07.2020 15:00:00 38,0 6,8 10 6 29 15 OZO 1010,4 20 60 0,0
11.07.2020 14:00:00 36,7 10,0 12 7 33 18 O 1011,3 20 60 -
11.07.2020 13:00:00 35,1 11,4 17 9 35 19 O 1012,1 20 60 0,0
11.07.2020 12:00:00 33,7 12,1 13 7 32 17 O 1012,4 20 60 0,0
11.07.2020 11:00:00 31,2 12,1 19 10 42 23 O 1013,0 20 60 0,0
11.07.2020 10:00:00 29,4 11,9 20 11 40 21 O 1013,3 20 60 0,0
11.07.2020 09:00:00 27,0 12,2 8 4 16 9 ONO 1013,5 20 60 0,0
11.07.2020 08:00:00 23,8 11,4 7 4 15 8 ONO 1013,3 20 36 -
11.07.2020 07:00:00 20,3 11,2 10 5 13 7 NO 1013,2 20 0 0,0
11.07.2020 06:00:00 21,1 10,5 5 3 13 7 NO 1012,5 20 0 0,0
11.07.2020 05:00:00 22,6 10,0 7 4 14 7 OZO 1011,8 20 0 0,0
11.07.2020 04:00:00 22,2 11,9 7 4 10 5 O 1011,5 20 0 0,0
11.07.2020 03:00:00 22,1 12,3 3 1 4 2 O 1011,6 20 0 0,0
11.07.2020 02:00:00 22,7 12,3 2 1 10 5 ZW 1011,5 20 0 -
11.07.2020 01:00:00 24,7 12,3 6 3 9 5 ONO 1011,1 20 0 0,0
11.07.2020 00:00:00 26,2 11,9 2 1 11 6 O 1010,8 20 0 0,0
10.07.2020 23:00:00 29,1 10,8 3 2 7 4 ONO 1010,0 20 0 0,0
10.07.2020 22:00:00 31,9 8,8 2 1 7 4 N 1009,2 20 0 0,0
10.07.2020 21:00:00 35,6 5,9 4 2 16 9 NO 1008,6 20 0 0,0
10.07.2020 20:00:00 36,6 5,8 6 3 17 9 N 1008,4 20 14 -
10.07.2020 19:00:00 37,6 6,5 5 3 15 8 OZO 1008,3 20 60 0,0
10.07.2020 18:00:00 37,3 7,3 9 5 21 11 N 1008,6 20 60 0,0
10.07.2020 17:00:00 37,3 7,3 8 4 21 12 WNW 1009,1 20 60 0,0
10.07.2020 16:00:00 36,5 7,6 6 3 19 11 NNW 1009,8 20 60 0,0
10.07.2020 15:00:00 35,0 8,0 5 3 19 10 NNO 1011,0 20 60 0,0
10.07.2020 14:00:00 33,8 9,2 8 4 19 10 O 1011,8 20 60 -
10.07.2020 13:00:00 32,0 9,6 9 5 21 12 ONO 1012,3 20 60 0,0
10.07.2020 12:00:00 30,3 9,8 10 6 23 12 ONO 1013,0 20 60 0,0
10.07.2020 11:00:00 28,3 10,0 9 5 23 12 ONO 1013,6 20 60 0,0
10.07.2020 10:00:00 26,1 11,4 11 6 26 14 ONO 1014,0 20 60 0,0
10.07.2020 09:00:00 24,0 11,3 10 5 17 9 ONO 1014,1 20 60 0,0
10.07.2020 08:00:00 20,8 11,4 5 3 11 6 NO 1014,6 20 33 -
10.07.2020 07:00:00 19,8 10,8 8 4 12 7 ONO 1014,2 20 0 0,0
10.07.2020 06:00:00 20,0 10,6 7 4 14 7 NO 1014,2 20 0 0,0
10.07.2020 05:00:00 21,9 10,0 9 5 16 9 O 1014,3 20 0 0,0
10.07.2020 04:00:00 23,2 9,6 8 4 16 9 O 1014,2 20 0 0,0
10.07.2020 03:00:00 25,1 8,5 9 5 24 13 ONO 1013,9 20 0 0,0
10.07.2020 02:00:00 26,3 8,8 12 6 25 13 ZO 1014,1 20 0 -
10.07.2020 01:00:00 26,5 9,8 5 3 15 8 OZO 1013,9 20 0 0,0
10.07.2020 00:00:00 27,8 9,2 8 5 24 13 O 1013,8 20 0 0,0
09.07.2020 23:00:00 29,2 8,8 13 7 36 19 OZO 1012,7 20 0 0,0
09.07.2020 22:00:00 31,8 6,1 6 4 20 11 N 1010,7 20 0 0,0
09.07.2020 21:00:00 33,5 4,3 9 5 24 13 ONO 1010,8 20 0 0,0
09.07.2020 20:00:00 35,0 3,6 5 3 22 12 W 1009,8 20 13 -
09.07.2020 19:00:00 36,1 3,4 6 3 24 13 NW 1010,1 20 60 0,0
09.07.2020 18:00:00 36,1 3,4 8 4 23 13 N 1010,8 20 60 0,0
09.07.2020 17:00:00 36,2 3,4 8 4 29 16 NW 1011,3 20 33 0,0
09.07.2020 16:00:00 35,0 3,6 8 5 29 16 NNO 1012,3 20 55 0,0
09.07.2020 15:00:00 35,3 4,8 6 4 24 13 WZW 1012,6 20 60 0,0
09.07.2020 14:00:00 34,2 7,3 5 3 23 12 ZW 1013,4 20 60 -
09.07.2020 13:00:00 32,9 8,4 7 4 15 8 ONO 1013,7 20 60 0,0
09.07.2020 12:00:00 31,8 9,3 3 2 13 7 NW 1014,1 20 60 0,0
09.07.2020 11:00:00 29,3 10,4 3 2 11 6 N 1014,7 20 60 0,0
09.07.2020 10:00:00 26,8 10,5 5 3 12 6 W 1015,2 20 60 0,0
09.07.2020 09:00:00 24,1 10,4 1 1 7 4 WZW 1015,2 20 60 0,0
09.07.2020 08:00:00 18,2 8,5 3 2 9 5 ZW 1015,1 20 31 -
09.07.2020 07:00:00 16,9 7,3 4 2 9 5 NW 1014,5 20 0 0,0
09.07.2020 06:00:00 17,1 7,1 3 2 8 5 WZW 1013,8 20 0 0,0
09.07.2020 05:00:00 18,2 6,7 5 3 12 7 N 1013,5 20 0 0,0
09.07.2020 04:00:00 19,6 6,4 2 1 8 4 WZW 1013,0 20 0 0,0
09.07.2020 03:00:00 21,7 4,6 3 1 11 6 N 1012,6 20 0 0,0
09.07.2020 02:00:00 24,5 4,3 4 2 18 10 W 1011,9 20 0 -
09.07.2020 01:00:00 25,7 3,6 7 4 23 12 ZZW 1011,7 20 0 0,0
09.07.2020 00:00:00 27,1 3,6 13 7 22 12 WZW 1010,9 20 0 0,0
08.07.2020 23:00:00 28,5 0,2 8 4 20 11 W 1009,9 20 0 0,0
08.07.2020 22:00:00 - - - - - - - - - - -
08.07.2020 21:00:00 - - - - - - - - - - -
08.07.2020 20:00:00 - - - - - - - - - - -
08.07.2020 19:00:00 - - - - - - - - - - -
08.07.2020 18:00:00 - - - - - - - - - - -
08.07.2020 17:00:00 - - - - - - - - - - -
08.07.2020 16:00:00 39,2 4,6 23 12 36 19 ZW 1007,3 20 55 0,0
08.07.2020 15:00:00 39,2 6,8 7 4 29 16 ZZO 1007,6 20 60 0,0
08.07.2020 14:00:00 37,3 5,3 10 5 33 18 Z 1008,5 18 59 -
08.07.2020 13:00:00 35,7 5,9 19 11 37 20 OZO 1009,4 17 53 0,0
08.07.2020 12:00:00 34,2 5,6 16 9 31 17 O 1010,0 20 60 0,0
08.07.2020 11:00:00 30,1 8,5 9 5 17 9 O 1010,8 20 43 0,0
08.07.2020 10:00:00 26,2 10,8 7 4 16 9 NNO 1011,2 20 12 0,0
08.07.2020 09:00:00 24,6 10,0 6 3 16 9 OZO 1011,0 20 19 0,0
08.07.2020 08:00:00 21,0 11,0 4 2 10 5 ONO 1010,8 20 0 -
08.07.2020 07:00:00 21,0 10,8 5 3 14 8 WZW 1010,6 20 0 0,0
08.07.2020 06:00:00 23,0 10,4 10 5 18 10 W 1009,8 20 0 0,0
08.07.2020 05:00:00 23,6 10,3 3 2 58 32 NNO 1010,2 20 0 0,0
08.07.2020 04:00:00 22,8 10,3 4 2 12 7 WNW 1011,0 20 0 0,0
08.07.2020 03:00:00 23,6 9,6 4 2 16 9 WNW 1010,9 20 0 0,0
08.07.2020 02:00:00 24,2 9,3 8 5 14 8 ZZO 1011,1 20 0 -
08.07.2020 01:00:00 24,5 9,3 8 4 11 6 NNO 1011,1 20 0 0,0
08.07.2020 00:00:00 25,3 7,4 5 3 7 4 WNW 1011,3 20 0 0,0
07.07.2020 23:00:00 27,8 7,6 5 3 6 4 ZZW 1010,8 20 0 0,0
07.07.2020 22:00:00 31,6 6,5 0 0 6 4 N 1009,9 20 0 0,0
07.07.2020 21:00:00 36,6 2,7 4 2 19 10 N 1009,3 20 0 0,0
07.07.2020 20:00:00 38,9 0,4 9 5 23 12 NNW 1009,2 20 14 -
07.07.2020 19:00:00 40,6 -2,0 11 6 28 15 WNW 1009,2 20 60 0,0
07.07.2020 18:00:00 41,7 -3,3 9 5 38 20 WNW 1009,4 20 60 0,0
07.07.2020 17:00:00 41,2 4,8 6 3 25 13 W 1009,9 20 60 0,0
07.07.2020 16:00:00 40,6 5,6 8 5 27 15 NW 1010,4 20 60 0,0
07.07.2020 15:00:00 40,0 5,1 6 3 24 13 NW 1010,9 20 60 0,0
07.07.2020 14:00:00 38,8 7,6 6 3 25 13 N 1011,6 20 60 -
07.07.2020 13:00:00 36,6 8,4 11 6 28 15 ONO 1012,1 20 60 0,0
07.07.2020 12:00:00 34,8 9,3 14 7 35 19 O 1012,7 20 60 0,0
07.07.2020 11:00:00 33,0 9,7 13 7 29 16 OZO 1012,9 20 60 0,0
07.07.2020 10:00:00 30,3 10,8 10 6 18 10 ONO 1013,3 20 60 0,0
07.07.2020 09:00:00 27,9 11,4 9 5 19 10 ONO 1013,4 20 60 0,0
07.07.2020 08:00:00 24,7 12,3 6 4 12 7 ONO 1013,5 20 42 -
07.07.2020 07:00:00 23,5 11,9 9 5 17 9 O 1013,4 20 0 0,0
07.07.2020 06:00:00 21,4 12,7 5 3 8 4 NO 1013,4 20 0 0,0
07.07.2020 05:00:00 23,5 12,4 6 4 11 6 O 1013,0 20 0 0,0
07.07.2020 04:00:00 23,4 12,6 5 3 11 6 ZO 1013,3 20 0 0,0
07.07.2020 03:00:00 24,2 11,9 8 4 12 7 NO 1013,1 20 0 0,0
07.07.2020 02:00:00 26,2 10,4 4 2 13 7 ZW 1012,7 20 0 -
07.07.2020 01:00:00 26,3 10,9 3 2 23 12 WNW 1012,5 20 0 0,0
07.07.2020 00:00:00 27,4 12,2 6 3 7 4 ZZW 1011,9 20 0 0,0
06.07.2020 23:00:00 30,4 10,9 2 1 7 4 NO 1011,5 20 0 0,0
06.07.2020 22:00:00 34,3 9,6 5 3 13 7 WNW 1010,7 20 0 0,0
06.07.2020 21:00:00 38,1 7,0 4 2 18 10 NW 1010,2 20 4 0,0
06.07.2020 20:00:00 39,3 5,8 7 4 26 14 WNW 1010,3 20 12 -
06.07.2020 19:00:00 40,5 5,6 11 6 31 17 W 1010,4 20 60 0,0
06.07.2020 18:00:00 40,8 4,6 8 4 28 15 NNW 1010,9 20 60 0,0
06.07.2020 17:00:00 40,9 5,9 8 4 26 14 W 1011,3 20 60 0,0
06.07.2020 16:00:00 40,8 4,6 7 4 21 11 W 1011,9 20 60 0,0
06.07.2020 15:00:00 40,2 5,3 7 4 22 12 NW 1012,6 20 60 0,0
06.07.2020 14:00:00 38,0 5,9 6 3 16 9 NO 1013,3 20 60 -

tt = temperatuur
td = dauwpunt
ff = windsnelheid
fx = windstoten
dd = windrichting
ppp = luchtdruk
vv = zicht
sd = Zonneschijnduur
rr = neerslag

Weerstations in de omgeving